When you browse on this site, cookies collect data to enhance your experience and personalize the content and advertising you see.
Visit our Privacy Policy to learn more. By continuing to use the site, you agree to this use of cookies and data.
  • In Germany
  • List of Countries
  • For 7 days
  • Water Temperature
  • Weather Map
  • Weather Widgets
  • user-avatar
    Login

    Hourly Weather Biskira

    Today, 25 August, Sunday

    Time Temperature Precipitation Wind Pressure Humidity
    00:00 +34°C° 0 mm 6 mps 751 mmHg 36%
    01:00 +33°C° 0 mm 5 mps 751 mmHg 39%
    02:00 +33°C° 0 mm 4 mps 751 mmHg 42%
    03:00 +32°C° 0 mm 4 mps 751 mmHg 46%
    04:00 +31°C° 0 mm 3 mps 751 mmHg 46%
    05:00 +30°C° 0 mm 3 mps 752 mmHg 47%
    06:00 +30°C° 0 mm 3 mps 752 mmHg 47%
    07:00 +33°C° 0 mm 4 mps 752 mmHg 41%
    08:00 +35°C° 0 mm 5 mps 752 mmHg 35%
    09:00 +36°C° 0 mm 6 mps 752 mmHg 29%
    10:00 +39°C° 0 mm 7 mps 752 mmHg 27%
    11:00 +40°C° 0 mm 7 mps 751 mmHg 25%
    12:00 +41°C° 0 mm 7 mps 751 mmHg 23%
    13:00 +41°C° 0 mm 6 mps 751 mmHg 22%
    14:00 +42°C° 0 mm 5 mps 750 mmHg 22%
    15:00 +42°C° 0 mm 5 mps 750 mmHg 21%
    16:00 +42°C° 0 mm 4 mps 750 mmHg 22%
    17:00 +40°C° 0 mm 3 mps 750 mmHg 22%
    18:00 +40°C° 0 mm 3 mps 750 mmHg 22%
    19:00 +39°C° 0 mm 3 mps 750 mmHg 23%
    20:00 +38°C° 0 mm 3 mps 751 mmHg 24%
    21:00 +37°C° 0 mm 3 mps 751 mmHg 25%
    22:00 +36°C° 0 mm 3 mps 751 mmHg 29%
    23:00 +35°C° 0 mm 4 mps 751 mmHg 33%

    Tomorrow, 26 August, Monday

    Time Temperature Precipitation Wind Pressure Humidity
    00:00 +34°C° 0 mm 5 mps 751 mmHg 37%
    01:00 +33°C° 0 mm 5 mps 751 mmHg 39%
    02:00 +32°C° 0 mm 5 mps 751 mmHg 40%
    03:00 +32°C° 0 mm 4 mps 751 mmHg 41%
    04:00 +30°C° 0 mm 4 mps 751 mmHg 41%
    05:00 +30°C° 0 mm 4 mps 752 mmHg 41%
    06:00 +30°C° 0 mm 3 mps 752 mmHg 41%
    07:00 +33°C° 0 mm 4 mps 752 mmHg 35%
    08:00 +35°C° 0 mm 6 mps 752 mmHg 30%
    09:00 +38°C° 0 mm 7 mps 752 mmHg 24%
    10:00 +39°C° 0 mm 7 mps 752 mmHg 23%
    11:00 +40°C° 0 mm 6 mps 752 mmHg 21%
    12:00 +41°C° 0 mm 6 mps 751 mmHg 19%
    13:00 +42°C° 0 mm 6 mps 751 mmHg 19%
    14:00 +42°C° 0 mm 5 mps 750 mmHg 18%
    15:00 +43°C° 0 mm 4 mps 750 mmHg 17%
    16:00 +42°C° 0 mm 4 mps 750 mmHg 18%
    17:00 +40°C° 0 mm 3 mps 750 mmHg 18%
    18:00 +40°C° 0 mm 3 mps 750 mmHg 19%
    19:00 +39°C° 0 mm 2 mps 750 mmHg 20%
    20:00 +38°C° 0 mm 2 mps 751 mmHg 21%
    21:00 +37°C° 0 mm 2 mps 751 mmHg 22%
    22:00 +36°C° 0 mm 3 mps 751 mmHg 25%
    23:00 +35°C° 0 mm 5 mps 751 mmHg 27%

    Day after tomorrow, 27 August, Tuesday

    Time Temperature Precipitation Wind Pressure Humidity
    00:00 +34°C° 0 mm 7 mps 751 mmHg 30%
    01:00 +34°C° 0 mm 6 mps 751 mmHg 33%
    02:00 +33°C° 0 mm 5 mps 751 mmHg 36%
    03:00 +32°C° 0 mm 5 mps 751 mmHg 40%
    04:00 +32°C° 0 mm 4 mps 752 mmHg 41%
    05:00 +31°C° 0 mm 3 mps 752 mmHg 41%
    06:00 +31°C° 0 mm 2 mps 753 mmHg 42%
    07:00 +32°C° 0 mm 2 mps 753 mmHg 38%
    08:00 +35°C° 0 mm 3 mps 753 mmHg 34%
    09:00 +36°C° 0 mm 3 mps 754 mmHg 29%
    10:00 +37°C° 0 mm 3 mps 753 mmHg 26%
    11:00 +38°C° 0 mm 3 mps 753 mmHg 23%
    12:00 +40°C° 0 mm 3 mps 753 mmHg 20%
    13:00 +40°C° 0 mm 3 mps 752 mmHg 20%
    14:00 +41°C° 0 mm 4 mps 752 mmHg 19%
    15:00 +41°C° 0 mm 4 mps 751 mmHg 18%
    16:00 +40°C° 0 mm 3 mps 751 mmHg 19%
    17:00 +39°C° 0 mm 2 mps 751 mmHg 20%
    18:00 +37°C° 0 mm 1 mps 751 mmHg 21%
    19:00 +37°C° 0 mm 2 mps 751 mmHg 22%
    20:00 +37°C° 0 mm 2 mps 752 mmHg 23%
    21:00 +36°C° 0 mm 2 mps 753 mmHg 24%
    22:00 +36°C° 0 mm 2 mps 752 mmHg 26%
    23:00 +35°C° 0 mm 2 mps 752 mmHg 28%

    28 August, Wednesday

    Time Temperature Precipitation Wind Pressure Humidity
    00:00 +35°C° 0 mm 2 mps 752 mmHg 30%
    01:00 +34°C° 0 mm 2 mps 752 mmHg 30%
    02:00 +34°C° 0 mm 2 mps 751 mmHg 30%
    03:00 +34°C° 0 mm 2 mps 751 mmHg 30%
    04:00 +33°C° 0 mm 3 mps 751 mmHg 32%
    05:00 +33°C° 0 mm 3 mps 752 mmHg 33%
    06:00 +31°C° 0 mm 3 mps 752 mmHg 34%
    07:00 +33°C° 0 mm 3 mps 752 mmHg 32%
    08:00 +34°C° 0 mm 3 mps 753 mmHg 30%
    09:00 +36°C° 0 mm 3 mps 753 mmHg 27%
    10:00 +37°C° 0 mm 3 mps 752 mmHg 25%
    11:00 +38°C° 0 mm 4 mps 752 mmHg 23%
    12:00 +40°C° 0 mm 4 mps 752 mmHg 22%
    13:00 +40°C° 0 mm 3 mps 751 mmHg 20%
    14:00 +40°C° 0 mm 3 mps 751 mmHg 19%
    15:00 +42°C° 0 mm 3 mps 750 mmHg 17%
    16:00 +40°C° 0 mm 2 mps 750 mmHg 18%
    17:00 +39°C° 0 mm 2 mps 750 mmHg 19%
    18:00 +39°C° 0 mm 1 mps 750 mmHg 21%
    19:00 +38°C° 0 mm 2 mps 750 mmHg 21%
    20:00 +37°C° 0 mm 2 mps 751 mmHg 22%
    21:00 +37°C° 0 mm 3 mps 751 mmHg 23%
    22:00 +36°C° 0 mm 4 mps 751 mmHg 26%
    23:00 +35°C° 0 mm 5 mps 751 mmHg 29%

    29 August, Thursday

    Time Temperature Precipitation Wind Pressure Humidity
    00:00 +34°C° 0 mm 6 mps 751 mmHg 32%
    01:00 +32°C° 0 mm 6 mps 752 mmHg 36%
    02:00 +30°C° 0 mm 5 mps 752 mmHg 41%
    03:00 +29°C° 0 mm 4 mps 752 mmHg 46%
    04:00 +29°C° 0 mm 3 mps 752 mmHg 46%
    05:00 +29°C° 0 mm 2 mps 752 mmHg 46%
    06:00 +29°C° 0 mm 1 mps 753 mmHg 46%
    07:00 +30°C° 0 mm 2 mps 753 mmHg 41%
    08:00 +32°C° 0 mm 2 mps 753 mmHg 36%
    09:00 +34°C° 0 mm 2 mps 753 mmHg 32%
    10:00 +36°C° 0 mm 3 mps 753 mmHg 29%
    11:00 +37°C° 0 mm 3 mps 752 mmHg 26%
    12:00 +38°C° 0 mm 3 mps 752 mmHg 22%
    13:00 +39°C° 0 mm 2 mps 751 mmHg 21%
    14:00 +40°C° 0 mm 2 mps 751 mmHg 20%
    15:00 +40°C° 0 mm 1 mps 751 mmHg 19%
    16:00 +40°C° 0 mm 1 mps 750 mmHg 20%
    17:00 +39°C° 0 mm 1 mps 750 mmHg 20%
    18:00 +38°C° 0 mm 2 mps 750 mmHg 21%
    19:00 +36°C° 0 mm 1 mps 750 mmHg 23%
    20:00 +35°C° 0 mm 1 mps 751 mmHg 25%
    21:00 +31°C° 0 mm 0 mps 751 mmHg 27%
    22:00 +33°C° 0 mm 1 mps 751 mmHg 27%
    23:00 +33°C° 0 mm 1 mps 752 mmHg 27%

    30 August, Friday

    Time Temperature Precipitation Wind Pressure Humidity
    00:00 +34°C° 0 mm 2 mps 752 mmHg 28%
    01:00 +32°C° 0 mm 2 mps 752 mmHg 34%
    02:00 +31°C° 0 mm 3 mps 752 mmHg 40%
    03:00 +30°C° 0 mm 3 mps 752 mmHg 46%
    04:00 +30°C° 0 mm 3 mps 752 mmHg 48%
    05:00 +30°C° 0 mm 2 mps 752 mmHg 49%
    06:00 +29°C° 0 mm 1 mps 752 mmHg 51%
    07:00 +31°C° 0 mm 2 mps 753 mmHg 47%
    08:00 +33°C° 0 mm 3 mps 753 mmHg 43%
    09:00 +35°C° 0 mm 3 mps 753 mmHg 39%
    10:00 +36°C° 0 mm 4 mps 753 mmHg 34%
    11:00 +39°C° 0 mm 5 mps 752 mmHg 29%
    12:00 +40°C° 0 mm 5 mps 752 mmHg 25%
    13:00 +40°C° 0.1 mm 4 mps 752 mmHg 24%
    14:00 +39°C° 0.1 mm 3 mps 751 mmHg 24%
    15:00 +39°C° 0.1 mm 2 mps 751 mmHg 23%
    16:00 +38°C° 0.1 mm 3 mps 751 mmHg 27%
    17:00 +37°C° 0.1 mm 5 mps 751 mmHg 32%
    18:00 +35°C° 0.1 mm 6 mps 752 mmHg 36%
    19:00 +34°C° 0.8 mm 8 mps 752 mmHg 42%
    20:00 +32°C° 0.8 mm 9 mps 752 mmHg 47%
    21:00 +31°C° 0.8 mm 11 mps 752 mmHg 53%
    22:00 +32°C° 0 mm 8 mps 752 mmHg 49%
    23:00 +32°C° 0 mm 6 mps 751 mmHg 45%
    Show more